EW0719 Weather Reports


Display with metric or nautical units.
time (UTC)temp
F
wind
direction
speed
MPH
gust
MPH
rain 1hr
in
rain 24hr
in
rain mn
in
humidity
%
barometer
mb
20210613104522 73 360 0.0 0.0 0.00 0.00 0.00 57 1004.7
20210613103105 73 360 0.0 5.0 0.00 0.00 0.00 57 1004.8
20210613101546 74 360 0.0 4.0 0.00 0.00 0.00 57 1004.8
20210613100020 74 360 0.0 3.0 0.00 0.00 0.00 57 1004.7
20210613094544 74 360 0.0 9.0 0.00 0.00 0.00 56 1004.8
20210613093027 74 157 1.0 9.0 0.00 0.00 0.00 56 1004.7
20210613091518 74 360 0.0 1.0 0.00 0.00 0.00 56 1004.7
20210613090051 74 360 0.0 3.0 0.00 0.00 0.00 55 1004.7
20210613084525 74 360 3.0 7.0 0.00 0.00 0.00 55 1004.7
20210613083026 75 134 3.0 8.0 0.00 0.00 0.00 53 1004.6
20210613081508 76 360 0.0 0.0 0.00 0.00 0.00 52 1004.7
20210613080013 76 360 3.0 9.0 0.00 0.00 0.00 51 1004.6
20210613074533 77 130 1.0 9.0 0.00 0.00 0.00 50 1004.7
20210613073004 77 360 0.0 6.0 0.00 0.00 0.00 49 1004.7
20210613071504 76 360 0.0 5.0 0.00 0.00 0.00 49 1004.7
20210613070005 76 163 0.0 2.0 0.00 0.00 0.00 49 1004.6
20210613064501 76 360 0.0 0.0 0.00 0.00 0.00 47 1004.5
20210613063223 77 360 0.0 0.0 0.00 0.00 0.00 45 1004.5
20210613061738 78 360 0.0 0.0 0.00 0.00 0.00 45 1004.6
20210613060059 78 360 0.0 0.0 0.00 0.00 0.00 45 1004.7
20210613053156 78 360 0.0 4.0 0.00 0.00 0.00 44 1004.8
20210613051608 79 360 0.0 4.0 0.00 0.00 0.00 43 1004.6
20210613050109 79 136 1.0 7.0 0.00 0.00 0.00 42 1004.6
20210613044642 79 360 4.0 13.0 0.00 0.00 0.00 42 1004.4
20210613043124 80 360 6.0 16.0 0.00 0.00 0.00 41 1004.2
20210613041704 80 360 6.0 16.0 0.00 0.00 0.00 40 1004.0
20210613040101 81 360 4.0 11.0 0.00 0.00 0.00 39 1004.1
20210613034557 81 145 4.0 13.0 0.00 0.00 0.00 38 1003.9
20210613033110 82 360 5.0 11.0 0.00 0.00 0.00 37 1003.9
20210613031645 83 360 6.0 13.0 0.00 0.00 0.00 35 1003.8
20210613030135 84 360 7.0 12.0 0.00 0.00 0.00 34 1003.7
20210613024657 84 360 7.0 15.0 0.00 0.00 0.00 32 1003.4
20210613023052 85 360 5.0 11.0 0.00 0.00 0.00 30 1003.3
20210613021617 86 144 5.0 12.0 0.00 0.00 0.00 28 1003.0
20210613020137 87 360 3.0 9.0 0.00 0.00 0.00 26 1002.7
20210613014539 88 360 2.0 10.0 0.00 0.00 0.00 25 1002.5
20210613013112 89 360 7.0 16.0 0.00 0.00 0.00 24 1002.3
20210613011547 90 360 5.0 11.0 0.00 0.00 0.00 22 1002.3
20210613010059 91 360 9.0 18.0 0.00 0.00 0.00 20 1002.1
20210613004654 92 360 6.0 16.0 0.00 0.00 0.00 19 1002.0
20210613003048 92 360 8.0 15.0 0.00 0.00 0.00 19 1001.9
20210613001558 93 360 3.0 9.0 0.00 0.00 0.00 17 1002.1
20210613000101 94 360 5.0 14.0 0.00 0.00 0.00 14 1002.1
20210612234630 94 360 5.0 15.0 0.00 0.00 0.00 14 1002.1
20210612233117 95 360 6.0 15.0 0.00 0.00 0.00 14 1001.9
20210612231631 96 360 7.0 19.0 0.00 0.00 0.00 13 1001.8
20210612230040 97 360 6.0 20.0 0.00 0.00 0.00 12 1001.8
20210612224609 98 360 4.0 15.0 0.00 0.00 0.00 13 1001.9
20210612223040 99 360 4.0 12.0 0.00 0.00 0.00 13 1001.9
20210612221614 98 360 2.0 12.0 0.00 0.00 0.00 14 1001.9
20210612220046 99 360 7.0 15.0 0.00 0.00 0.00 15 1002.0
20210612214553 99 360 1.0 11.0 0.00 0.00 0.00 16 1002.2
20210612213109 99 360 3.0 11.0 0.00 0.00 0.00 16 1002.2
20210612211530 99 130 3.0 9.0 0.00 0.00 0.00 16 1002.4
20210612210032 99 360 2.0 8.0 0.00 0.00 0.00 16 1002.5
20210612204611 99 360 2.0 8.0 0.00 0.00 0.00 16 1002.5
20210612203131 98 360 7.0 12.0 0.00 0.00 0.00 15 1002.4
20210612201528 98 360 2.0 11.0 0.00 0.00 0.00 14 1002.5
20210612200132 98 360 2.0 10.0 0.00 0.00 0.00 17 1002.5
20210612194519 98 360 1.0 11.0 0.00 0.00 0.00 23 1002.7
20210612193024 98 360 2.0 9.0 0.00 0.00 0.00 24 1002.9
20210612191530 98 360 4.0 11.0 0.00 0.00 0.00 24 1003.1
20210612190035 97 360 3.0 9.0 0.00 0.00 0.00 24 1003.1
20210612184520 97 360 2.0 8.0 0.00 0.00 0.00 24 1003.4
20210612183033 97 360 1.0 9.0 0.00 0.00 0.00 23 1003.6
20210612181522 96 360 1.0 9.0 0.00 0.00 0.00 22 1003.8
20210612180012 96 360 2.0 9.0 0.00 0.00 0.00 23 1003.7
20210612174507 97 360 1.0 9.0 0.00 0.00 0.00 22 1003.8
20210612173006 96 360 0.0 8.0 0.00 0.00 0.00 22 1003.9
20210612171722 95 360 1.0 7.0 0.00 0.00 0.00 21 1003.9
20210612170152 94 334 1.0 8.0 0.00 0.00 0.00 24 1004.0
20210612164715 93 360 1.0 6.0 0.00 0.00 0.00 26 1004.0
20210612163126 92 360 0.0 5.0 0.00 0.00 0.00 27 1004.0
20210612161619 91 360 1.0 6.0 0.00 0.00 0.00 27 1004.0
20210612160059 90 360 1.0 8.0 0.00 0.00 0.00 27 1004.0
20210612154609 90 360 0.0 5.0 0.00 0.00 0.00 28 1004.0
20210612153036 89 360 0.0 1.0 0.00 0.00 0.00 30 1004.0
20210612151556 88 360 0.0 5.0 0.00 0.00 0.00 30 1003.9
20210612150032 87 360 0.0 2.0 0.00 0.00 0.00 30 1004.0
20210612144544 85 360 0.0 0.0 0.00 0.00 0.00 31 1003.6
20210612143038 83 360 0.0 1.0 0.00 0.00 0.00 35 1003.4
20210612141528 82 360 0.0 2.0 0.00 0.00 0.00 36 1003.1
20210612140001 81 360 0.0 0.0 0.00 0.00 0.00 40 1002.7
20210612134646 78 360 0.0 0.0 0.00 0.00 0.00 43 1002.4
20210612133134 76 360 0.0 0.0 0.00 0.00 0.00 46 1002.1
20210612131605 75 360 0.0 0.0 0.00 0.00 0.00 47 1002.0
20210612130121 74 360 0.0 0.0 0.00 0.00 0.00 47 1001.9
20210612124629 74 360 0.0 0.0 0.00 0.00 0.00 47 1001.8
20210612123050 75 360 0.0 1.0 0.00 0.00 0.00 46 1001.7
20210612121631 75 360 0.0 0.0 0.00 0.00 0.00 46 1001.5
20210612120143 75 360 0.0 0.0 0.00 0.00 0.00 45 1001.5
20210612114542 75 360 0.0 0.0 0.00 0.00 0.00 46 1001.3
20210612113115 75 360 0.0 0.0 0.00 0.00 0.00 46 1001.2
20210612111538 75 360 0.0 2.0 0.00 0.00 0.00 46 1000.9
20210612110059 75 360 0.0 3.0 0.00 0.00 0.00 45 1000.8